2024-170C

Last updated on Mon Oct 21 2024 00:02:04 GMT+0000 (Coordinated Universal Time)

1 61197U 24170C 24294.56907145 .00000986 00000+0 61071-3 0 9996 2 61197 44.8624 322.0295 0006362 61.6153 298.5323 14.11572772 4256

Satellite not in orbit

2024-170C